This demonstration page uses our WeatherBlox Daily Observations layout. Learn more.

Left ArrowRight Arrow

38.20091, -84.87328

Hourly Observations for July 14, 2017

Temp ( °F °C ) Dew Point ( °F °C ) Humidity (%) Winds ( mph kmh ) Pressure ( in mb ) Visibility ( mi km ) Precip ( " mm )
12:53 am 00:53 Clear 79 26.1 72 22.2 79 79 SW 8 13 30.05 1018 10 16 0.00 0.00
1:53 am 01:53 Clear 79 26.1 72 22.2 79 79 SW 9 15 30.04 1017 10 16 0.00 0.00
2:53 am 02:53 Clear 78 25.6 72 22.2 82 82 SW 8 13 30.04 1017 10 16 0.00 0.00
3:53 am 03:53 Clear 77 25 72 22.2 85 85 SW 5 7 30.04 1017 10 16 0.00 0.00
4:53 am 04:53 Clear 77 25 72 22.2 85 85 SW 7 11 30.04 1017 10 16 0.00 0.00
5:53 am 05:53 Clear 76 24.4 72 22.2 88 88 SW 7 11 30.04 1017 10 16 0.00 0.00
6:15 am 06:15 Mostly Cloudy 76 24.4 72 22.2 88 88 SW 7 11 30.06 1018 10 16 0.00 0.00
6:34 am 06:34 Partly Cloudy 76 24.4 72 22.2 88 88 WSW 3 6 30.06 1018 9 14 0.00 0.00
6:53 am 06:53 Sunny 76 24.4 72 22.2 88 88 WSW 5 7 30.06 1018 8 13 0.00 0.00
7:53 am 07:53 Sunny 77 25 70 21.1 79 79 W 3 6 30.07 1018 10 16 0.00 0.00
8:53 am 08:53 Mostly Cloudy 79 26.1 70 21.1 74 74 WSW 5 7 30.09 1019 10 16 0.00 0.00
9:53 am 09:53 Mostly Sunny 81 27.2 70 21.1 69 69 SW 7 11 30.08 1019 10 16 0.00 0.00
10:53 am 10:53 Mostly Sunny 83 28.3 71 21.7 67 67 WSW 7 11 30.08 1019 10 16 0.00 0.00
11:53 am 11:53 Mostly Cloudy 84 28.9 72 22.2 67 67 VRB 6 9 30.09 1019 10 16 0.00 0.00
12:09 pm 12:09 Mostly Cloudy 85 29.4 72 22.2 65 65 W 6 9 30.09 1019 10 16 0.00 0.00
12:23 pm 12:23 Mostly Cloudy with Nearby Thunderstorms 86 30 72 22.2 63 63 VRB 5 7 30.09 1019 10 16 0.00 0.00
12:40 pm 12:40 Mostly Cloudy with Thunderstorms 85 29.4 71 21.7 63 63 VRB 5 7 30.06 1018 10 16 0.00 0.00
12:53 pm 12:53 Mostly Cloudy with Thunderstorms 84 28.9 71 21.7 65 65 NW 7 11 30.08 1019 10 16 0.00 0.00
12:59 pm 12:59 Cloudy with Thunderstorms 78 25.6 71 21.7 79 79 WNW 17 28 30.09 1019 1 2 0.18 4.57
1:06 pm 13:06 Cloudy with Strong Thunderstorms 74 23.3 69 20.6 85 85 VRB 3 6 30.09 1019 0 0 0.54 13.72
1:15 pm 13:15 Mostly Cloudy with Thunderstorms 74 23.3 70 21.1 88 88 S 3 6 30.06 1018 1 2 0.55 13.97
1:20 pm 13:20 Partly Cloudy with Thunderstorms 76 24.4 72 22.2 88 88 SW 3 6 30.06 1018 3 5 0.55 13.97
1:40 pm 13:40 Sunny with Nearby Thunderstorms 80 26.7 72 22.2 76 76 WNW 5 7 30.09 1019 10 16 0.55 13.97
1:53 pm 13:53 Partly Cloudy with Nearby Thunderstorms 80 26.7 73 22.8 79 79 Calm 30.07 1018 10 16 0.55 13.97
2:00 pm 14:00 Partly Cloudy 81 27.2 72 22.2 74 74 Calm 30.06 1018 10 16 0.00 0.00
2:53 pm 14:53 Mostly Sunny 86 30 74 23.3 67 67 W 6 9 30.04 1017 10 16 0.00 0.00
3:53 pm 15:53 Mostly Sunny 86 30 70 21.1 59 59 WNW 9 15 30.04 1017 10 16 0.00 0.00
4:53 pm 16:53 Mostly Sunny 88 31.1 71 21.7 57 57 NW 10 17 30.03 1017 10 16 0.00 0.00
5:53 pm 17:53 Sunny 86 30 71 21.7 61 61 W 6 9 30.03 1017 10 16 0.00 0.00
6:53 pm 18:53 Partly Cloudy 84 28.9 71 21.7 65 65 W 9 15 30.02 1017 10 16 0.00 0.00
7:53 pm 19:53 Partly Cloudy 82 27.8 70 21.1 67 67 WSW 5 7 30.03 1017 10 16 0.00 0.00
8:53 pm 20:53 Sunny 79 26.1 70 21.1 74 74 WNW 3 6 30.04 1017 10 16 0.00 0.00
9:53 pm 21:53 Clear 77 25 71 21.7 82 82 Calm 30.05 1018 10 16 0.00 0.00
10:53 pm 22:53 Clear 76 24.4 68 20 77 77 Calm 30.06 1018 10 16 0.00 0.00
11:53 pm 23:53 Clear 73 22.8 68 20 84 84 Calm 30.07 1018 10 16 0.00 0.00

Powered by AerisWeather